Terminal Aerodrome Forecast
Issued by NWS Huntsville, AL

Home | Current Version | Previous Version | Text Only | Print | Product List | Glossary On
Versions: 1 2 3 4 5 6 7 8 9 10 11 12 13 14 15 16 17 18 19 20 21 22 23 24 25 26 27 28 29 30 31 32 33 34 35 36 37 38 39 40 41 42
000
FTUS44 KHUN 111720
TAFMSL
TAF
KMSL 111720Z 1118/1218 00000KT P6SM BKN040
     FM120100 08002KT P6SM SKC
      TEMPO 1210/1213 5SM BR
     FM121600 13004KT P6SM SCT050=

USA.gov is the U.S. government's official web portal to all federal, state and local government web resources and services.